[[{"header":{"parameterUnit":"m.s-1","parameterCategory":1,"la1":30.2991,"la2":30.254,"lo1":-89.0895,"lo2":-89.0444,"dx":0.0017,"dy":0.0017,"nx":28,"ny":28,"refTime":"2022-11-26T09:00:00:Z","depth":0,"parameterNumber":2,"parameterNumberName":"U-component_of_WINDS"},"data":[0,0,0,0,0,0,0,0,0,0,0,0,0,0,0,0,0,0,0,0,0,0,0,0,0,0,0,0,0,0,0,0,0,0,0,0,0,0,0,0,0,0,0,0,0,0,0,0,0,0,0,0,0,0,0,0,0,0,-1.4809,-1.481,0,-1.4891,-1.4891,-1.4892,-1.4879,-1.4878,-1.4876,-1.4875,-1.4961,-1.4964,-1.4968,0,0,0,0,0,0,0,0,0,0,0,0,0,-1.4646,-1.4649,-1.4809,-1.481,-1.4811,-1.489,-1.4891,-1.4893,-1.4879,-1.4878,-1.4876,-1.4874,-1.496,-1.4964,-1.4968,0,0,0,0,0,0,0,0,0,0,0,0,0,-1.4721,-1.465,-1.4809,-1.4814,-1.4815,-1.489,-1.4892,-1.4893,-1.488,-1.4878,-1.4875,-1.4873,-1.4958,-1.4964,-1.4969,-1.5045,0,0,-1.4985,-1.4988,0,0,0,0,0,0,0,0,-1.4717,-1.4727,-1.4812,-1.4814,-1.4815,-1.4872,-1.4865,-1.4944,-1.488,-1.4855,-1.4875,-1.4872,-1.4933,-1.4941,-1.4961,-1.5049,-1.5053,-1.4986,-1.4989,-1.4992,-1.4993,0,0,0,0,0,0,0,-1.4711,-1.4723,-1.4841,-1.4814,-1.4815,-1.4813,-1.4822,-1.488,-1.4905,-1.4857,-1.4856,-1.4866,-1.4934,-1.4956,-1.4963,-1.5054,-1.4986,-1.4991,-1.4994,-1.4996,-1.5211,-1.5213,0,0,0,0,0,0,-1.4704,-1.4719,-1.4839,-1.4844,-1.476,-1.4818,-1.4827,-1.4856,-1.4905,-1.491,-1.4868,-1.4865,-1.4947,-1.4956,-1.4966,-1.506,-1.4992,-1.4997,-1.5,-1.5208,-1.5211,-1.5214,0,0,0,0,0,0,-1.4701,-1.4715,-1.4836,-1.4781,-1.4796,-1.4823,-1.4856,-1.4859,-1.4881,-1.4913,-1.4917,-1.4885,-1.4946,-1.4958,-1.5026,-1.5062,-1.4999,-1.5004,-1.5206,-1.5209,-1.5213,-1.5247,0,0,0,0,0,0,-1.4696,-1.4714,-1.4742,-1.4782,-1.4799,-1.4893,-1.4858,-1.4862,-1.489,-1.4887,-1.493,-1.4935,-1.4945,-1.5018,-1.5031,-1.5069,-1.5008,-1.5202,-1.5207,-1.5212,-1.5243,-1.5251,-1.5259,0,0,0,0,0,-1.469,-1.4749,-1.4744,-1.4758,-1.4835,-1.4895,-1.4905,-1.4915,-1.4893,-1.4922,-1.4943,-1.4934,-1.5056,-1.5025,-1.504,-1.5079,-1.52,-1.5206,-1.5211,-1.5239,-1.525,-1.5259,0,0,0,0,0,0,-1.4713,-1.4754,-1.4749,-1.4821,-1.4855,-1.4893,-1.493,-1.4925,-1.4967,-1.4962,-1.4973,-1.4983,-1.5052,-1.5072,-1.5037,-1.5157,-1.5125,-1.5134,-1.5141,-1.5151,-1.5159,-1.5154,-1.5013,0,0,0,0,0,-1.4726,-1.4771,-1.4804,-1.4865,-1.4882,-1.4903,-1.493,-1.4934,-1.497,-1.4984,-1.501,-1.5046,-1.5092,-1.5123,-1.5167,-1.5245,-1.5256,-1.528,-1.5288,-1.5294,-1.5302,-1.5348,-1.536,-1.5232,-1.5232,-1.5232,0,0,-1.4754,-1.4782,-1.481,-1.487,-1.4897,-1.4944,-1.4915,-1.4966,-1.5002,-1.4992,-1.5058,-1.5078,-1.5119,-1.5193,-1.5226,-1.5212,-1.534,-1.5301,-1.5306,-1.5311,-1.5355,-1.5367,-1.5377,-1.5236,-1.5235,-1.5235,0,0,-1.483,-1.4855,-1.4909,-1.4937,-1.4977,-1.4991,-1.5004,-1.5043,-1.5056,-1.5122,-1.5116,-1.5159,-1.5238,-1.5268,-1.5294,-1.5382,-1.5377,-1.5397,-1.5439,-1.5483,-1.5493,-1.5502,-1.5536,-1.5548,-1.5404,-1.5404,-1.5404,0,-1.4861,-1.4931,-1.4938,-1.499,-1.5018,-1.5011,-1.5067,-1.5093,-1.5146,-1.5167,-1.5149,-1.5249,-1.5276,-1.5358,-1.538,-1.54,-1.5417,-1.5392,-1.5491,-1.55,-1.5509,-1.5541,-1.5554,-1.5406,-1.5406,-1.5406,-1.5406,0,-1.4967,-1.5016,-1.5055,-1.5107,-1.5139,-1.5192,-1.521,-1.5241,-1.5243,-1.5259,-1.5328,-1.5359,-1.5411,-1.5431,-1.5433,-1.5514,-1.5503,-1.5488,-1.5457,-1.5523,-1.5554,-1.5566,-1.541,-1.5409,-1.5408,-1.5408,0,0,-1.506,-1.5115,-1.513,-1.5154,-1.5198,-1.5237,-1.5291,-1.5341,-1.5369,-1.5406,-1.5454,-1.5521,-1.5508,-1.5537,-1.5543,-1.5581,-1.5652,-1.5561,-1.5563,-1.5579,-1.5746,-1.5759,-1.5773,-1.5648,-1.565,-1.5652,-1.5743,0,-1.5142,-1.5237,-1.5246,-1.5332,-1.5379,-1.5373,-1.542,-1.5454,-1.547,-1.5513,-1.5532,-1.5581,-1.5558,-1.5576,-1.5613,-1.5635,-1.5686,-1.5629,-1.5694,-1.5696,-1.5686,-1.5789,-1.5802,-1.5887,-1.5755,-1.5757,-1.5759,0,-1.525,-1.5291,-1.5381,-1.5421,-1.5441,-1.5483,-1.5531,-1.5571,-1.5609,-1.5619,-1.5652,-1.5653,-1.5711,-1.5676,-1.5757,-1.5718,-1.5745,-1.576,-1.5764,-1.5772,-1.5733,-1.5802,-1.5914,-1.5927,-1.5777,-1.5776,-1.5775,0,-1.5312,-1.5389,-1.5453,-1.5474,-1.5521,-1.5552,-1.5573,-1.5609,-1.5639,-1.5681,-1.5701,-1.5749,-1.5776,-1.5814,-1.5828,-1.5801,-1.591,-1.5875,-1.5921,-1.5921,-1.5946,-1.5945,-1.6066,-1.596,-1.5959,-1.5959,-1.5959,0,-1.5404,-1.546,-1.5482,-1.5522,-1.5586,-1.5596,-1.5659,-1.5679,-1.5711,-1.5756,-1.5753,-1.5796,-1.5811,-1.5857,-1.5869,-1.5936,-1.5947,-1.5958,-1.5961,-1.596,-1.5959,-1.598,-1.5975,-1.5963,-1.5962,-1.5961,-1.5961,0,-1.5484,-1.5501,-1.5571,-1.561,-1.5621,-1.5667,-1.5701,-1.5741,-1.5756,-1.5814,-1.5828,-1.5854,-1.5907,-1.5925,-1.599,-1.5998,-1.6077,-1.6073,-1.6064,-1.6065,-1.6111,-1.6107,-1.6252,-1.6272,-1.615,-1.6151,-1.6152,0,-1.5543,-1.5586,-1.563,-1.5659,-1.5682,-1.5729,-1.576,-1.5772,-1.5805,-1.5852,-1.5887,-1.594,-1.5983,-1.607,-1.6095,-1.6146,-1.6145,-1.6192,-1.6153,-1.6151,-1.6149,-1.6147,-1.6153,-1.62,-1.6201,-1.6202,-1.6203,0,-1.5646,-1.5652,-1.5696,-1.5744,-1.578,-1.5819,-1.5856,-1.588,-1.5898,-1.5935,-1.5989,-1.6023,-1.609,-1.6144,-1.6195,-1.6218,-1.6215,-1.6215,-1.6229,-1.6229,-1.6223,-1.623,-1.6087,-1.6212,-1.6211,-1.6211,-1.621,-1.621,-1.5718,-1.5758,-1.5795,-1.5845,-1.5874,-1.5909,-1.5948,-1.5969,-1.6015,-1.607,-1.6074,-1.6134,-1.6173,-1.6242,-1.6268,-1.6316,-1.6303,-1.6322,-1.6327,-1.6333,-1.6338,-1.6213,-1.6325,-1.6325,-1.6325,-1.6324,-1.6324,0,-1.5823,-1.5847,-1.5893,-1.5945,-1.5985,-1.5976,-1.6017,-1.6051,-1.6104,-1.614,-1.6183,-1.6247,-1.6299,-1.6329,-1.6382,-1.6415,-1.6415,-1.6428,-1.6427,-1.6434,-1.6345,-1.6329,-1.6428,-1.6428,-1.6428,-1.6428,-1.6428,-1.6428,-1.5883,-1.5949,-1.596,-1.6042,-1.6065,-1.6124,-1.6148,-1.6181,-1.621,-1.6282,-1.6325,-1.6344,-1.6378,-1.6434,-1.6482,-1.649,-1.651,-1.6526,-1.6533,-1.645,-1.6439,-1.6429,-1.6414,-1.653,-1.653,-1.6618,-1.6619,-1.6619]},{"header":{"parameterUnit":"m.s-1","parameterCategory":1,"la1":30.2991,"la2":30.254,"lo1":-89.0895,"lo2":-89.0444,"dx":0.0017,"dy":0.0017,"nx":28,"ny":28,"refTime":"2022-11-26T09:00:00:Z","depth":0,"parameterNumber":3,"parameterNumberName":"V-component_of_WINDS"},"data":[0,0,0,0,0,0,0,0,0,0,0,0,0,0,0,0,0,0,0,0,0,0,0,0,0,0,0,0,0,0,0,0,0,0,0,0,0,0,0,0,0,0,0,0,0,0,0,0,0,0,0,0,0,0,0,0,0,0,-1.4981,-1.4982,0,-1.5044,-1.5045,-1.5045,-1.5043,-1.5042,-1.5042,-1.5041,-1.5104,-1.5107,-1.5109,0,0,0,0,0,0,0,0,0,0,0,0,0,-1.4857,-1.4859,-1.4981,-1.4982,-1.4982,-1.5044,-1.5045,-1.5046,-1.5043,-1.5042,-1.5041,-1.504,-1.5103,-1.5106,-1.5109,0,0,0,0,0,0,0,0,0,0,0,0,0,-1.4915,-1.486,-1.4981,-1.4989,-1.499,-1.5044,-1.5045,-1.5046,-1.5044,-1.5042,-1.5041,-1.504,-1.5102,-1.5106,-1.511,-1.5159,0,0,-1.5121,-1.5123,0,0,0,0,0,0,0,0,-1.4911,-1.4919,-1.4987,-1.4988,-1.499,-1.5035,-1.5024,-1.5084,-1.5044,-1.5023,-1.5041,-1.5039,-1.5082,-1.5087,-1.5102,-1.5162,-1.5165,-1.5121,-1.5124,-1.5125,-1.5126,0,0,0,0,0,0,0,-1.4907,-1.4916,-1.5006,-1.4988,-1.499,-1.4989,-1.4996,-1.5036,-1.5059,-1.5025,-1.5025,-1.5033,-1.5083,-1.5098,-1.5103,-1.5166,-1.5121,-1.5125,-1.5127,-1.5128,-1.527,-1.5272,0,0,0,0,0,0,-1.4902,-1.4913,-1.5004,-1.5008,-1.4947,-1.4992,-1.5,-1.5021,-1.5059,-1.5063,-1.5034,-1.5032,-1.5093,-1.5099,-1.5106,-1.5167,-1.5125,-1.5129,-1.5131,-1.5269,-1.5271,-1.5272,0,0,0,0,0,0,-1.4899,-1.491,-1.5001,-1.496,-1.4972,-1.4996,-1.502,-1.5023,-1.5039,-1.5065,-1.5069,-1.5046,-1.5092,-1.51,-1.5146,-1.5169,-1.5131,-1.5134,-1.5267,-1.5269,-1.5271,-1.5289,0,0,0,0,0,0,-1.4896,-1.4909,-1.4928,-1.4961,-1.4974,-1.5041,-1.5022,-1.5026,-1.5046,-1.5045,-1.5078,-1.5082,-1.5091,-1.5141,-1.515,-1.5173,-1.5137,-1.5265,-1.5268,-1.5271,-1.5286,-1.5291,-1.5296,0,0,0,0,0,-1.4891,-1.493,-1.4929,-1.494,-1.4999,-1.5042,-1.505,-1.5061,-1.5048,-1.5067,-1.5084,-1.5081,-1.5165,-1.5145,-1.5156,-1.5181,-1.5264,-1.5267,-1.527,-1.5284,-1.529,-1.5296,0,0,0,0,0,0,-1.4899,-1.4934,-1.4934,-1.4985,-1.5011,-1.5042,-1.5067,-1.5067,-1.5096,-1.5094,-1.5106,-1.5113,-1.5159,-1.5174,-1.5152,-1.5231,-1.5213,-1.5218,-1.5219,-1.5226,-1.523,-1.5226,-1.514,0,0,0,0,0,-1.4906,-1.4939,-1.4968,-1.501,-1.5023,-1.5043,-1.5062,-1.5068,-1.5095,-1.5106,-1.5126,-1.5152,-1.5185,-1.5206,-1.5237,-1.5288,-1.5296,-1.5311,-1.5315,-1.5319,-1.5324,-1.5353,-1.5361,-1.5283,-1.5283,-1.5283,0,0,-1.4922,-1.4946,-1.4966,-1.5012,-1.5033,-1.5067,-1.5052,-1.5088,-1.5113,-1.5111,-1.5156,-1.5172,-1.5202,-1.5251,-1.5273,-1.5265,-1.5347,-1.5323,-1.5326,-1.5329,-1.5358,-1.5365,-1.5371,-1.5286,-1.5285,-1.5285,0,0,-1.4969,-1.499,-1.5028,-1.5049,-1.5081,-1.5094,-1.5103,-1.5134,-1.5145,-1.519,-1.519,-1.522,-1.5275,-1.5297,-1.5315,-1.537,-1.5368,-1.538,-1.5405,-1.5433,-1.5439,-1.5445,-1.5465,-1.5473,-1.5384,-1.5384,-1.5384,0,-1.4985,-1.5036,-1.5047,-1.5084,-1.5104,-1.5105,-1.5143,-1.5163,-1.5203,-1.5218,-1.5207,-1.5278,-1.5298,-1.5352,-1.5366,-1.538,-1.5391,-1.5376,-1.5437,-1.5443,-1.5448,-1.5468,-1.5476,-1.5386,-1.5386,-1.5385,-1.5385,0,-1.5054,-1.509,-1.5116,-1.5156,-1.518,-1.5217,-1.5233,-1.5256,-1.526,-1.5273,-1.532,-1.5344,-1.538,-1.5393,-1.5397,-1.5449,-1.5443,-1.5435,-1.5417,-1.5457,-1.5476,-1.5483,-1.5388,-1.5387,-1.5387,-1.5386,0,0,-1.5108,-1.5154,-1.5163,-1.5182,-1.5217,-1.5245,-1.5282,-1.5318,-1.5338,-1.5365,-1.5397,-1.5444,-1.5437,-1.5458,-1.5464,-1.5489,-1.5533,-1.5478,-1.5479,-1.5488,-1.5592,-1.5599,-1.5607,-1.5531,-1.5533,-1.5534,-1.559,0,-1.5159,-1.5226,-1.5237,-1.5296,-1.5329,-1.533,-1.5363,-1.5388,-1.5402,-1.5432,-1.5446,-1.548,-1.5468,-1.5481,-1.5505,-1.5522,-1.5554,-1.5518,-1.5562,-1.5563,-1.5555,-1.5617,-1.5624,-1.5676,-1.5597,-1.5599,-1.5599,0,-1.5228,-1.5258,-1.5321,-1.5352,-1.5367,-1.5396,-1.5431,-1.5459,-1.5487,-1.5496,-1.5519,-1.5523,-1.5562,-1.5541,-1.5595,-1.557,-1.5589,-1.56,-1.5602,-1.5607,-1.5584,-1.5625,-1.5692,-1.5701,-1.5611,-1.561,-1.5609,0,-1.5262,-1.5318,-1.5363,-1.5379,-1.5417,-1.5437,-1.5454,-1.5481,-1.5503,-1.5533,-1.5547,-1.558,-1.5599,-1.5625,-1.5638,-1.5622,-1.5691,-1.5671,-1.57,-1.5699,-1.5715,-1.5714,-1.5787,-1.5725,-1.5725,-1.5725,-1.5724,0,-1.5319,-1.5357,-1.538,-1.5407,-1.545,-1.5462,-1.5504,-1.552,-1.5545,-1.5576,-1.5578,-1.5607,-1.5621,-1.5652,-1.5662,-1.5706,-1.5713,-1.5722,-1.5724,-1.5722,-1.5721,-1.5735,-1.5732,-1.5727,-1.5726,-1.5726,-1.5725,0,-1.5365,-1.5381,-1.543,-1.5463,-1.5471,-1.5502,-1.5529,-1.5556,-1.557,-1.5609,-1.5618,-1.564,-1.5676,-1.5691,-1.5736,-1.5743,-1.5793,-1.5792,-1.5784,-1.5785,-1.5813,-1.581,-1.5898,-1.5911,-1.5839,-1.584,-1.584,0,-1.54,-1.543,-1.5466,-1.5487,-1.5505,-1.5538,-1.5561,-1.5573,-1.5596,-1.5631,-1.5654,-1.5691,-1.5721,-1.5779,-1.5799,-1.5833,-1.5834,-1.5862,-1.5839,-1.5836,-1.5836,-1.5834,-1.5838,-1.5867,-1.5867,-1.5868,-1.5868,0,-1.5463,-1.5469,-1.5502,-1.5537,-1.5564,-1.5592,-1.5619,-1.5636,-1.5653,-1.5679,-1.5716,-1.574,-1.5786,-1.5823,-1.5858,-1.5875,-1.5875,-1.5875,-1.5884,-1.5883,-1.5878,-1.5882,-1.5797,-1.5874,-1.5873,-1.5873,-1.5872,-1.5872,-1.5505,-1.5532,-1.5562,-1.5598,-1.562,-1.5646,-1.5673,-1.569,-1.5722,-1.5761,-1.5767,-1.5807,-1.5835,-1.5883,-1.5902,-1.5934,-1.5926,-1.5938,-1.5942,-1.5945,-1.5947,-1.5872,-1.594,-1.594,-1.594,-1.5939,-1.5939,0,-1.5569,-1.5588,-1.5621,-1.566,-1.5688,-1.5686,-1.5716,-1.574,-1.5776,-1.5802,-1.5832,-1.5876,-1.5912,-1.5934,-1.597,-1.5991,-1.5992,-1.6001,-1.6,-1.6004,-1.5951,-1.5941,-1.5999,-1.5999,-1.5999,-1.5999,-1.5999,-1.5999,-1.5605,-1.5651,-1.5661,-1.5718,-1.5737,-1.5778,-1.5795,-1.5819,-1.5841,-1.589,-1.592,-1.5934,-1.5959,-1.5997,-1.6029,-1.6035,-1.6049,-1.6058,-1.6063,-1.6013,-1.6007,-1.6001,-1.5992,-1.606,-1.606,-1.6113,-1.6114,-1.6114]}]]